Tracking 31027 objects as of 19-Jul-2025
HD Live streaming from Space Station
objects crossing your sky now

SL-14 DEB

Track SL-14 DEB now!
10-day predictions


NORAD ID: 45311
Int'l Code: 1991-056AZ
Perigee: 1,183.4 km
Apogee: 1,209.8 km
Inclination: 82.6 °
Period: 109.2 minutes
Semi major axis: 7567 km
RCS: Unknown
Launch date: August 15, 1991
Source: Commonwealth of Independent States (former USSR) (CIS)
Launch site: PLESETSK MISSILE AND SPACE COMPLEX (PKMTR)

Note: This is SATELLITE DEBRIS
Your satellite tracking list
FENGYUN 1C DEB
Track 1 satellite(s)




NASA's NSSDC Master Catalog

Two Line Element Set (TLE):
1 45311U 91056AZ  25199.88428876  .00000098  00000-0  21689-3 0  9998
2 45311  82.5503  10.1352 0017448 220.4411 139.5416 13.18750268259678
Source of the keplerian elements: AFSPC